Welcome to the New NWS' Forecast!
Most changes are behind the scenes, but click here for differences you might notice.
Latest weather observations around

College Park Airport (KCGS)

Using English Units (Switch to International System of Units)
Date/ Time (EDT) Wind (mph) Vis. (mi) Weather Sky Cond. Temp (°F) Rel. Humidity Wind Chill (°F) Heat Index (°F) Pressure Precip. (in)
Air Dwpt 6 hour Altimeter (inHg) Sea level (inHg) 1 hr 3 hr 6 hr
Max Min
Notice The following observation data may not be complete
May 24 22:53   10 Cloudy OVC015          %              
May 24 22:33 E 3 10 Cloudy OVC017 60 54     82%     29.71        
May 24 22:13 E 5 10 Cloudy BKN017 BKN042 OVC048 60 54     81%     29.72        
May 24 21:53 E 7 10 Mostly Cloudy SCT017 BKN050 BKN070 60 54     80%     29.71        
May 24 21:33 ESE 8 10 Mostly Cloudy SCT017 BKN050 BKN070 60 54     79%     29.71        
May 24 21:13 ESE 10 10 Mostly Cloudy BKN050 61 54     78%     29.71        
May 24 20:53 E 9 10 Cloudy OVC050 61 54     77%     29.71        
May 24 20:33 E 9 10 Cloudy OVC055 62 54     75%     29.72        
May 24 20:13 E 7 10 Cloudy SCT045 OVC055 63 54     72%     29.73        
May 24 19:53 E 7 10 Cloudy OVC045 63 54     72%     29.73        
May 24 19:33 ESE 3 10 Cloudy SCT036 OVC043 63 55     74%     29.72        
May 24 19:13 ESE 5 10 Cloudy SCT036 OVC043 64 56     75%     29.71        
May 24 18:53 ESE 5 10 Cloudy SCT036 OVC045 64 56     77%     29.71        
May 24 18:33 ESE 5 10 Cloudy OVC045 64 57     77%     29.72        
May 24 18:13 ESE 5 10 Cloudy OVC043 63 57     78%     29.71        
May 24 17:53 SE 7 10 Cloudy OVC041 63 56     78%     29.72        
May 24 17:33 ESE 5 10 Cloudy SCT033 OVC041 63 56     79%     29.72        
May 24 17:13 ESE 3 10 Cloudy SCT024 OVC031 63 56     78%     29.73        
May 24 16:33 SE 7 10 Cloudy OVC024 63 55     77%     29.74        
May 24 16:13 E 8 10 Cloudy BKN022 BKN028 OVC034 63 56     77%     29.74        
May 24 15:33 E 5 10 Cloudy BKN028 OVC033 63 56     75%     29.74        
May 24 15:13 E 7 10 Cloudy BKN022 OVC028 63 56     77%     29.73        
May 24 14:53 ESE 8 10 Cloudy OVC024 63 55     76%     29.73        
May 24 14:33 ESE 6 10 Cloudy BKN024 OVC032 63 55     75%     29.74        
May 24 14:13 E 8 10 Cloudy BKN022 BKN029 OVC034 63 55     74%     29.74        
May 24 13:53 ESE 5 10 Cloudy BKN020 BKN025 OVC030 63 55     77%     29.74        
May 24 13:33 ESE 6 10 Cloudy SCT020 OVC030 63 55     76%     29.74        
May 24 13:13 ESE 7 10 Cloudy OVC022 62 55     77%     29.73        
May 24 12:33 E 6 10 Cloudy SCT021 SCT031 OVC037 63 55     76%     29.74        
May 24 12:13 E 6 10 Cloudy SCT021 SCT029 OVC039 63 55     75%     29.75        
May 24 11:33 Calm 10 Cloudy SCT021 SCT026 OVC043 62 55     77%     29.75        
May 24 11:13 ESE 3 10 Cloudy SCT016 OVC045 62 55     78%     29.73        
May 24 10:53 Calm 10 Cloudy SCT016 OVC047 61 54     78%     29.74        
May 24 10:33 E 5 10 Cloudy SCT016 OVC045 62 55     78%     29.73        
May 24 10:13 ENE 3 10 Cloudy SCT015 BKN045 OVC050 62 55     79%     29.73        
May 24 09:53 NNE 5 10 Cloudy SCT015 OVC050 61 55     81%     29.74        
May 24 09:33 NE 3 10 Cloudy OVC050 60 54     81%     29.73        
May 24 09:13 NE 5 10 Cloudy OVC060 59 54     83%     29.74        
May 24 08:53 Calm 10 Cloudy OVC060 59 53     82%     29.75        
May 24 08:33 N 5 10 Cloudy OVC060 58 54     87%     29.73        
May 24 08:13 Calm 10 Cloudy SCT040 SCT046 OVC060 57 54     89%     29.74        
May 24 07:53 Calm 10 Cloudy SCT042 OVC050 56 53     89%     29.75        
May 24 07:33 Calm 10 Cloudy OVC050 56 54     91%     29.75        
May 24 07:13 Calm 10 Cloudy OVC050 56 54     91%     29.73        
May 24 06:53 Calm 10 Cloudy BKN050 BKN070 OVC080 56 54     94%     29.72        
May 24 06:33 Calm 10 Cloudy BKN070 OVC080 55 54     94%     29.72        
May 24 06:13 Calm 10 Cloudy OVC070 55 53     92%     29.71        
May 24 05:53 Calm 10 Cloudy BKN070 OVC090 55 53     93%     29.7        
May 24 05:33 Calm 10 Cloudy SCT026 SCT037 OVC090 55 53     92%     29.7        
May 24 05:13 NE 3 10 Cloudy SCT017 BKN025 OVC047 55 53     92%     29.71        
May 24 04:53 ENE 3 7 Cloudy BKN015 OVC023 55 53     92%     29.71        
May 24 04:33 E 6 5 Cloudy SCT008 OVC013 56 54     94%     29.71        
May 24 04:13 Calm 7 Cloudy OVC008 57 55     95%     29.71        
May 24 03:53 Calm 5 Cloudy BKN010 OVC070 57 56     95%     29.7        
May 24 03:33 Calm 5 Cloudy SCT006 SCT010 OVC070 57 55     94%     29.71        
May 24 03:13 Calm 10 Cloudy OVC070 57 55     94%     29.71        
May 24 02:53 Calm 10 Cloudy OVC080 57 56     94%     29.72        
May 24 02:33 Calm 5 Cloudy SCT050 OVC080 57 56     95%     29.71        
May 24 02:13 Calm 7 Mostly Cloudy SCT050 BKN080 BKN100 57 56     95%     29.72        
May 24 01:53 Calm 7 Mostly Cloudy SCT028 SCT044 BKN055 57 55     92%     29.73        
May 24 01:33 Calm 7 Cloudy SCT020 BKN024 OVC055 58 55     90%     29.74        
May 24 01:13 NNE 5 7 Cloudy OVC018 58 55     90%     29.74        
May 24 00:53 Calm 5 Cloudy OVC018 59 58     96%     29.76        
May 24 00:33 Calm 7 Cloudy OVC018 59 58     94%     29.76        
May 24 00:13 Calm 7 Cloudy BKN018 BKN026 OVC120 59 57     95%     29.75        
May 23 23:53 Calm 7 Mostly Cloudy SCT022 SCT027 BKN120 59 57     95%     29.75        
May 23 23:33 Calm 7 Partly Cloudy SCT014 SCT022 58 57     96%     29.75        
May 23 23:13 Calm 7 Partly Cloudy SCT120 58 57     96%     29.76        
May 23 22:53 Calm 7 Partly Cloudy SCT038 SCT120 58 57     96%     29.76        
May 23 22:33 Calm 10 Clear CLR 59 57     94%     29.77        
May 23 22:13 Calm 10 Clear CLR 59 57     93%     29.77        
May 23 21:53 Calm 10 Partly Cloudy SCT100 59 56     92%     29.78        
May 23 21:33 Calm 10 Cloudy SCT050 OVC100 58 57     94%     29.78        
May 23 21:13 Calm 10 Cloudy BKN050 BKN060 OVC100 59 56     91%     29.79        
May 23 20:53 Calm 10 Cloudy SCT039 SCT065 OVC090 59 56     91%     29.8        
May 23 20:33 Calm 7 Cloudy SCT039 BKN075 OVC090 60 57     91%     29.81        
May 23 20:13 Calm 10 Cloudy OVC090 60 57     91%     29.81        
May 23 19:53 Calm 10 Cloudy SCT080 OVC090 61 58     89%     29.81        
May 23 19:33 Calm 7 Cloudy SCT025 BKN080 OVC090 61 59     92%     29.81        
May 23 19:13 Calm 5 Cloudy SCT020 OVC025 62 59     91%     29.82        
May 23 18:53 Calm 7 Cloudy BKN020 BKN030 OVC039 62 59     89%     29.81        
May 23 18:33 Calm 7 Cloudy SCT020 BKN027 OVC100 63 59     87%     29.81        
May 23 18:13 Calm 7 Cloudy SCT022 OVC055 63 58     83%     29.82        
May 23 17:53 Calm 10 Cloudy SCT019 SCT028 OVC055 64 58     81%     29.82        
May 23 17:33 Calm 10 Cloudy BKN028 OVC055 64 58     82%     29.82        
May 23 17:13 Calm 10 Cloudy OVC026 64 58     81%     29.83        
May 23 16:53 E 6 10 Cloudy OVC026 64 58     81%     29.84        
May 23 16:33 ENE 3 10 Cloudy SCT023 BKN028 OVC033 64 58     80%     29.84        
May 23 16:13 E 5 10 Cloudy SCT018 SCT025 OVC032 64 58     79%     29.85        
May 23 15:53 ENE 5 10 Cloudy SCT022 OVC029 64 58     79%     29.86        
May 23 15:33 ENE 3 10 Cloudy SCT021 OVC029 64 58     78%     29.87        
May 23 13:13 E 7 10 Cloudy OVC023 65 56     75%     29.91        
May 23 12:53 E 6 10 Partly Cloudy SCT023 SCT060 SCT120 64 55     71%     29.92        
May 23 12:33 ESE 6 10 Partly Cloudy SCT060 SCT120 65 54     68%     29.92        
May 23 12:13 ESE 6 10 Partly Cloudy SCT021 SCT120 65 55     70%     29.94        
May 23 11:53 ESE 5 10 Mostly Cloudy SCT021 BKN120 64 55     72%     29.95        
May 23 11:33 ENE 3 10 Partly Cloudy SCT120 63 55     76%     29.95        
May 23 11:13 E 3 10 Partly Cloudy SCT016 63 56     79%     29.95        
May 23 10:53 NE 6 10 Partly Cloudy SCT016 SCT050 62 56     81%     29.95        
May 23 10:33 NE 3 10 Mostly Cloudy SCT016 BKN050 BKN070 62 56     80%     29.96        
May 23 10:13 ENE 3 10 Cloudy BKN050 OVC065 62 56     81%     29.96        
May 23 09:53 N 3 10 Cloudy BKN050 OVC060 61 55     82%     29.97        
May 23 09:33 Calm 10 Cloudy SCT050 OVC060 60 55     84%     29.96        
May 23 09:13 ENE 3 10 Mostly Cloudy BKN060 60 55     83%     29.96        
May 23 08:53 N 5 10 Clear CLR 59 55     84%     29.94        
May 23 08:33 Calm 10 Clear CLR 59 55     85%     29.95        
May 23 08:13 N 3 10 Clear CLR 59 55     86%     29.95        
May 23 07:53 Calm 10 Clear CLR 58 55     88%     29.94        
May 23 07:33 Calm 10 Clear CLR 58 55     91%     29.95        
May 23 07:13 Calm 10 Clear CLR 58 56     96%     29.95        
May 23 06:53 Calm 5 Clear CLR 57 56     97%     29.95        
May 23 06:33 Calm 7 Clear CLR 57 56     97%     29.95        
May 23 06:13 Calm 3 Clear CLR 56 56     98%     29.95        
May 23 05:53 Calm 7 Clear CLR 57 56     98%     29.95        
May 23 05:33 Calm 1 Clear VV007 56 56     97%     29.94        
May 23 05:13 Calm 4 Clear CLR 57 56     97%     29.94        
May 23 04:53 Calm 7 Clear CLR 58 57     97%     29.94        
May 23 04:33 Calm 3 Clear CLR 59 58     98%     29.94        
May 23 04:13 Calm 7 Clear CLR 59 59     98%     29.95        
May 23 03:53 Calm 4 Clear CLR 59 58     97%     29.94        
May 23 03:33 Calm 5 Partly Cloudy SCT003 SCT008 60 59     97%     29.95        
May 23 03:13 NW 3 5 Mostly Cloudy BKN003 61 60     97%     29.94        
May 23 02:53 NNW 3 5 Cloudy OVC003 61 61     98%     29.94        
May 23 02:33 Calm 0.75 Cloudy OVC001 61 61     99%     29.94        
May 23 02:13 Calm 0.5 Cloudy OVC001 61 61     99%     29.95        
May 23 01:53 N 3 0.5 Cloudy OVC001 61 61     99%     29.94        
May 23 01:33 N 5 0.5 Cloudy OVC001 62 61     97%     29.94        
May 23 01:13 Calm 0.5 Cloudy OVC001 62 61     98%     29.96        
May 23 00:53 Calm 4 Cloudy OVC003 62 61     98%     29.96        
May 23 00:33 Calm 7 Mostly Cloudy BKN003 BKN007 60 60     98%     29.97        
May 23 00:13 Calm 7 Clear CLR 60 59     97%     29.98        
May 22 23:53 Calm 7 Clear CLR 60 60     98%     29.98        
May 22 23:33 Calm 5 Clear CLR 60 60     97%     29.98        
May 22 23:13 Calm 2.5 Clear CLR 61 60     97%     29.97        
May 22 22:53 Calm 7 Clear CLR 62 61     97%     29.98        
May 22 22:33 Calm 7 Partly Cloudy SCT013 62 61     96%     29.99        
May 22 22:13 Calm 10 Clear CLR 63 62     96%     29.99        
May 22 21:53 Calm 10 Clear CLR 63 62     96%     29.96        
May 22 21:33 Calm 10 Partly Cloudy SCT020 64 62     95%     29.97        
May 22 21:13 Calm 10 Partly Cloudy SCT020 64 63     95%     29.98        
May 22 20:53 Calm 10 Clear CLR 65 63     92%     29.97        
May 22 20:33 Calm 10 Mostly Cloudy BKN019 66 63     89%     29.97        
May 22 20:13 Calm 10 Cloudy OVC019 67 63     88%     29.97        
May 22 19:53 Calm 10 Partly Cloudy SCT021 67 63     85%     29.97        
May 22 19:33 Calm 10 Partly Cloudy SCT018 68 63     84%     29.96        
May 22 19:13 Calm 10 Mostly Cloudy BKN018 69 63     81%     29.96        
May 22 18:53 E 3 10 Partly Cloudy SCT018 SCT085 69 63     82%     29.96        
May 22 18:33 Calm 10 Partly Cloudy SCT085 68 63     82%     29.95        
May 22 18:13 NE 3 10 Partly Cloudy SCT021 69 63     82%     29.95        
May 22 17:53 Calm 10 Cloudy BKN021 OVC075 69 63     81%     29.96        
May 22 17:33 Calm 10 Mostly Cloudy SCT021 BKN075 69 63     80%     29.96        
May 22 17:13 Calm 10 Partly Cloudy SCT075 69 62     78%     29.96        
May 22 16:53 Calm 10 Partly Cloudy SCT075 69 63     79%     29.95        
May 22 16:33 Calm 10 Mostly Cloudy BKN065 69 62     77%     29.94        
May 22 16:13 Calm 10 Cloudy OVC065 69 62     78%     29.94        
May 22 15:53 Calm 10 Cloudy OVC065 69 62     77%     29.95        
May 22 15:33 Calm 10 Cloudy SCT017 OVC055 68 62     79%     29.95        
May 22 15:13 Calm 10 Cloudy BKN015 BKN022 OVC055 69 62     77%     29.96        
May 22 14:53 Calm 10 Cloudy BKN013 OVC018 68 61     79%     29.98        
May 22 14:33 Calm 10 Cloudy OVC012 67 62     82%     29.98        
May 22 14:13 Calm 10 Cloudy OVC010 66 61     83%     29.99        
May 22 13:53 Calm 10 Cloudy BKN010 OVC065 66 61     84%     30        
May 22 12:53 Calm 10 Cloudy OVC006 63 59     89%     30.03        
May 22 12:33 Calm 10 Cloudy OVC006 62 59     90%     30.04        
May 22 12:13 Calm 10 Cloudy OVC008 62 59     91%     30.04        
May 22 11:53 Calm 10 Cloudy OVC008 61 59     91%     30.05        
May 22 11:33 Calm 10 Cloudy OVC008 61 58     91%     30.06        
May 22 11:13 Calm 10 Cloudy OVC006 61 59     93%     30.05        
May 22 10:53 Calm 10 Cloudy OVC006 60 59     95%     30.04        
May 22 10:33 E 3 10 Cloudy OVC006 60 58     95%     30.05        
May 22 10:13 Calm 10 Cloudy OVC006 59 57     93%     30.07        
May 22 09:53 Calm 7 Cloudy OVC006 59 57     94%     30.07        
May 22 09:33 Calm 7 Cloudy OVC006 58 56     93%     30.09        
May 22 09:13 Calm 7 Cloudy OVC008 58 56     94%     30.09        
May 22 08:33 Calm 4 Cloudy BKN006 OVC021 58 56     96%     30.09        
May 22 08:13 Calm 2.5 Cloudy BKN006 BKN018 OVC055 57 56     95%     30.09        
May 22 07:53 Calm 7 Cloudy BKN006 BKN026 OVC055 57 56     94%     30.09        
May 22 07:33 Calm 7 Cloudy OVC006 57 56     94%     30.1        
May 22 07:13 Calm 7 Cloudy OVC006 57 55     96%     30.1        
May 22 06:53 Calm 7 Cloudy OVC006 56 55     96%     30.1        
May 22 06:33 Calm 7 Cloudy BKN006 OVC013 56 55     95%     30.1        
May 22 06:13 Calm 10 Cloudy BKN006 OVC013 56 55     95%     30.1        
May 22 05:53 Calm 7 Cloudy BKN006 OVC013 56 55     94%     30.1        
May 22 05:33 Calm 7 Cloudy OVC006 56 55     94%     30.1        
May 22 05:13 Calm 7 Cloudy OVC006 56 55     95%     30.11        
May 22 04:53 Calm 7 Cloudy BKN006 OVC024 56 55     95%     30.11        
May 22 04:33 Calm 10 Cloudy SCT006 BKN024 OVC030 56 55     94%     30.12        
May 22 04:13 Calm 7 Cloudy BKN006 OVC026 56 55     94%     30.12        
May 22 03:53 Calm 3 Cloudy BKN006 BKN014 OVC026 56 55     95%     30.12        
May 22 03:33 Calm 3 Cloudy SCT008 BKN014 OVC026 56 55     95%     30.14        
May 22 03:13 E 3 3 Cloudy SCT015 OVC024 56 54     93%     30.14        
May 22 02:53 ESE 3 5 Cloudy SCT015 OVC024 57 54     88%     30.14        
May 22 02:33 E 5 10 Cloudy BKN023 OVC029 59 52     80%     30.15        
May 22 02:13 Calm 10 Cloudy OVC021 60 51     73%     30.15        
May 22 01:53 Calm 10 Cloudy OVC021 60 51     72%     30.15        
May 22 01:33 E 3 10 Cloudy OVC021 60 51     71%     30.16        
Notice The following observation data may not be complete
May 22 01:13   10 Cloudy OVC023          %              
May 22 00:53 Calm 10 Cloudy OVC023 61 50     68%     30.17        
May 22 00:33 ESE 5 10 Cloudy BKN025 OVC031 61 50     66%     30.17        
May 22 00:13 ESE 3 10 Cloudy BKN027 OVC050 62 49     64%     30.18        
May 21 23:53 ESE 3 10 Cloudy BKN027 OVC050 62 50     65%     30.18        
Notice The following observation data may not be complete
May 21 23:33   10 Cloudy SCT029 OVC050          %              
May 21 23:13 ESE 5 10 Cloudy OVC050 62 50     64%     30.19        
May 21 22:53 ESE 6 10 Cloudy SCT040 BKN050 OVC110 63 51     65%     30.2        
May 21 22:33 SE 5 10 Cloudy OVC038 63 51     64%     30.21        
May 21 22:13 ESE 3 10 Cloudy OVC038 63 51     63%     30.21        
May 21 21:53 ESE 5 10 Cloudy OVC040 63 50     63%     30.21        
May 21 21:33 E 3 10 Cloudy OVC040 63 50     62%     30.2        
May 21 21:13 Calm 10 Cloudy OVC040 64 49     60%     30.21        
May 21 20:53 SE 3 10 Cloudy OVC040 64 48     56%     30.21        
May 21 20:33 Calm 10 Cloudy OVC042 65 48     55%     30.21        
May 21 20:13 SE 3 10 Cloudy OVC042 64 49     58%     30.21        
May 21 19:53 ESE 3 10 Cloudy OVC042 65 49     56%     30.21        
May 21 19:33 ESE 3 10 Cloudy BKN042 OVC070 65 48     55%     30.21        
May 21 19:13 SE 5 10 Cloudy SCT044 OVC070 65 47     53%     30.2        
May 21 18:53 SE 3 10 Cloudy OVC046 65 48     55%     30.2        
May 21 18:33 SE 5 10 Cloudy OVC048 65 48     55%     30.21        
May 21 18:13 ESE 3 10 Cloudy BKN048 OVC070 65 49     55%     30.21        
May 21 17:53 SE 5 10 Cloudy BKN050 OVC070 65 48     54%     30.21        
May 21 17:33 ESE 7 10 Cloudy OVC050 66 48     52%     30.22        
May 21 17:13 E 5 10 Cloudy OVC050 66 49     54%     30.23        
May 21 16:53 ESE 5 10 Cloudy OVC048 66 49     54%     30.22        
May 21 16:33 ESE 7 10 Cloudy OVC048 67 50     54%     30.23        
May 21 16:13 ESE 5 10 Cloudy OVC048 66 49     55%     30.24        
May 21 15:53 E 5 10 Cloudy OVC048 65 49     58%     30.25        
May 21 15:33 E 3 10 Cloudy OVC048 65 48     54%     30.26        
May 21 15:13 E 3 10 Cloudy OVC048 65 49     55%     30.26        
May 21 14:53 SE 6 10 Cloudy OVC048 66 49     55%     30.27        
May 21 14:33 SE 3 10 Cloudy BKN048 OVC055 66 48     52%     30.27        
May 21 14:13 ESE 5 10 Cloudy BKN048 OVC055 65 47     53%     30.27        
May 21 13:53 SE 5 10 Cloudy BKN048 OVC060 65 47     52%     30.28        
May 21 12:33 ESE 6 10 Cloudy OVC050 63 44     48%     30.3        
May 21 12:13 SE 6 10 Cloudy OVC050 63 44     49%     30.31        
May 21 11:53 ESE 7 10 Cloudy OVC050 63 44     49%     30.31        
May 21 11:33 ESE 3 10 Cloudy OVC050 63 44     49%     30.31        
May 21 10:53 E 5 10 Cloudy OVC048 62 46     56%     30.32        
May 21 10:33 Calm 10 Cloudy OVC048 62 46     56%     30.32        
May 21 10:13 ENE 6 10 Cloudy BKN050 OVC060 60 45     57%     30.32        
May 21 09:53 E 7 10 Cloudy OVC050 60 46     59%     30.31        
May 21 09:33 E 7 10 Cloudy OVC050 60 46     61%     30.32        
May 21 09:13 Calm 10 Cloudy OVC050 59 45     61%     30.33        
May 21 08:53 Calm 10 Cloudy OVC050 58 45     62%     30.34        
May 21 08:33 Calm 10 Cloudy OVC050 58 44     60%     30.35        
May 21 08:13 Calm 10 Cloudy OVC050 57 44     61%     30.33        
May 21 07:53 Calm 10 Cloudy OVC050 57 42     57%     30.33        
May 21 07:33 Calm 10 Cloudy OVC050 57 42     57%     30.32        
May 21 06:53 Calm 10 Cloudy OVC050 57 41     55%     30.3        
May 21 06:33 ENE 3 10 Cloudy OVC050 56 40     55%     30.27        
May 21 06:13 ENE 3 10 Cloudy OVC050 56 41     57%     30.27        
May 21 05:53 Calm 10 Cloudy OVC050 56 42     59%     30.27        
May 21 05:33 NE 3 10 Cloudy OVC050 56 43     60%     30.27        
May 21 05:13 E 3 10 Cloudy OVC050 57 44     62%     30.28        
May 21 04:53 Calm 10 Cloudy OVC046 57 44     62%     30.29        
May 21 04:33 Calm 10 Cloudy OVC044 57 43     58%     30.29        
May 21 04:13 E 3 10 Cloudy OVC046 57 43     58%     30.29        
May 21 03:53 Calm 10 Cloudy OVC048 58 42     55%     30.3        
May 21 03:33 Calm 10 Cloudy OVC048 58 42     55%     30.3        
May 21 03:13 Calm 10 Cloudy OVC046 58 42     57%     30.3        
May 21 02:53 Calm 10 Cloudy OVC046 58 42     57%     30.3        
May 21 02:33 Calm 10 Cloudy OVC046 58 43     57%     30.3        
May 21 02:13 Calm 10 Cloudy OVC046 58 43     57%     30.3        
May 21 01:53 E 3 10 Cloudy OVC046 58 43     57%     30.31        
May 21 01:33 ESE 3 10 Cloudy OVC046 58 43     56%     30.33        
May 21 01:13 ESE 3 10 Cloudy OVC044 59 42     53%     30.32        
May 21 00:53 Calm 10 Cloudy OVC044 59 42     54%     30.31        
May 21 00:33 ESE 7 10 Cloudy OVC044 59 42     53%     30.31        
May 21 00:13 E 5 10 Cloudy OVC044 59 45     60%     30.31        
May 20 23:53 SE 6 10 Cloudy OVC044 60 45     58%     30.3        
May 20 23:33 E 7 10 Cloudy OVC042 60 45     59%     30.31        
May 20 23:13 ESE 6 10 Cloudy OVC040 60 47     63%     30.31        
May 20 22:53 ESE 3 10 Cloudy OVC040 60 48     65%     30.31        
May 20 22:33 ESE 6 10 Cloudy SCT037 OVC042 61 48     63%     30.31        
May 20 22:13 E 8 10 Cloudy SCT035 OVC042 62 49     62%     30.31        
May 20 21:53 ESE 7 10 Cloudy SCT035 OVC042 63 49     60%     30.3        
May 20 21:33 ESE 6 10 Cloudy OVC042 63 49     61%     30.29        
May 20 21:13 ESE 8 10 Cloudy OVC040 63 49     60%     30.28        
May 20 20:53 E 6 10 Cloudy OVC038 64 49     58%     30.29        
May 20 20:33 ESE 8 10 Cloudy OVC038 64 49     57%     30.29        
May 20 20:13 ESE 3 10 Cloudy OVC036 64 49     58%     30.28        
May 20 19:53 E 5 10 Cloudy OVC036 65 49     57%     30.28        
May 20 19:33 E 5 10 Cloudy OVC036 65 50     58%     30.28        
May 20 19:13 E 7 10 Cloudy OVC036 65 51     61%     30.27        
May 20 18:33 ENE 6 10 Cloudy OVC036 66 53     63%     30.25        
May 20 18:13 E 7 10 Cloudy OVC034 66 54     65%     30.24        
May 20 17:53 NE 5 10 Cloudy OVC034 66 54     66%     30.24        
May 20 17:33 ENE 6 10 Cloudy OVC036 67 54     65%     30.24        
May 20 17:13 E 6 10 Cloudy OVC036 67 54     64%     30.24        
May 20 16:53 E 6 10 Cloudy OVC034 67 55     65%     30.24        
May 20 16:33 E 6 10 Cloudy OVC032 67 55     66%     30.25        
May 20 16:13 E 6 10 Cloudy OVC032 67 56     67%     30.24        
May 20 15:53 NE 8 10 Cloudy OVC030 66 55     68%     30.24        
May 20 15:33 ENE 7 10 Cloudy OVC030 66 56     69%     30.25        
May 20 15:13 NE 7 10 Cloudy OVC028 66 56     70%     30.25        
May 20 14:53 ENE 6 10 Cloudy OVC030 66 56     70%     30.25        
May 20 14:13 ENE 6 10 Cloudy OVC028 67 56     67%     30.24        
May 20 13:53 E 5 10 Cloudy OVC030 67 56     68%     30.24        
May 20 13:33 ENE 8 10 Cloudy OVC030 68 56     66%     30.23        
May 20 13:13 E 8 10 Cloudy OVC028 68 56     66%     30.23        
May 20 12:53 E 7 10 Cloudy BKN028 BKN034 OVC045 68 56     67%     30.23        
May 20 12:33 E 8 10 Cloudy SCT028 SCT034 OVC048 68 56     67%     30.23        
May 20 12:13 E 9 10 Cloudy SCT029 SCT035 OVC048 68 56     67%     30.22        
May 20 11:53 E 5 10 Cloudy OVC027 66 57     72%     30.22        
May 20 11:33 E 8 10 Cloudy BKN027 OVC035 66 56     70%     30.22        
May 20 11:13 E 7 10 Cloudy SCT029 BKN033 OVC043 67 57     69%     30.21        
May 20 10:53 E 9 10 Cloudy SCT027 BKN033 OVC043 68 57     69%     30.2        
May 20 10:33 E 8 10 Cloudy BKN029 OVC043 69 57     68%     30.19        
May 20 10:13 E 9 10 Cloudy OVC041 68 57     69%     30.19        
May 20 09:53 ENE 10 10 Cloudy OVC041 68 57     69%     30.18        
May 20 09:33 ENE 14 10 Cloudy OVC039 68 58     70%     30.17        
May 20 09:13 ENE 9 10 Cloudy OVC039 67 58     73%     30.17        
May 20 08:53 ENE 6 10 Cloudy OVC041 67 59     75%     30.16        
May 20 08:33 ENE 5 10 Cloudy OVC039 67 60     79%     30.15        
May 20 08:13 NNE 5 10 Cloudy OVC037 66 60     83%     30.15        
May 20 07:53 NNE 5 10 Cloudy SCT021 SCT028 OVC033 65 60     84%     30.14        
May 20 07:33 NNE 6 10 Cloudy BKN021 OVC028 66 61     84%     30.13        
May 20 07:13 NNE 7 10 Cloudy BKN021 OVC031 66 62     85%     30.12        
May 20 06:53 N 6 10 Mostly Cloudy SCT021 BKN031 BKN070 67 62     85%     30.11        
May 20 06:33 N 5 10 Cloudy SCT029 OVC070 67 65     92%     30.09        
May 20 06:13 N 3 10 Cloudy BKN025 OVC070 67 65     94%     30.09        
May 20 05:53 NNE 3 10 Cloudy SCT023 BKN070 OVC120 67 66     95%     30.07        
May 20 05:13 Calm 7 Partly Cloudy SCT120 67 67     97%     30.04        
May 20 04:53 N 3 7 Partly Cloudy SCT120 67 67     98%     30.04        
May 20 04:33 N 5 7 Clear CLR 67 67     99%     30.02        
May 20 04:13 Calm 1 Clear VV007 66 65     98%     30.02        
May 20 03:53 Calm 4 Clear CLR 66 66     98%     30.01        
May 20 03:33 Calm 1 Clear VV007 67 66     98%     30        
May 20 03:13 Calm 5 Clear CLR 67 66     98%     30        
May 20 02:53 Calm 3 Clear CLR 67 67     98%     30        
May 20 02:33 Calm 4 Clear CLR 68 67     98%     30        
May 20 02:13 Calm 7 Partly Cloudy SCT120 68 67     97%     29.99        
May 20 01:53 Calm 7 Clear CLR 68 67     97%     29.99        
May 20 01:33 Calm 7 Partly Cloudy SCT120 68 67     97%     29.99        
May 20 01:13 Calm 7 Clear CLR 69 67     96%     29.99        
May 20 00:53 Calm 5 Clear CLR 68 67     96%     30        
May 20 00:33 Calm 7 Clear CLR 69 67     95%     30.01        
May 20 00:13 Calm 10 Clear CLR 69 67     94%     30        
May 19 23:53 Calm 10 Partly Cloudy SCT100 69 67     94%     30        
May 19 23:33 Calm 10 Partly Cloudy SCT034 SCT075 SCT100 69 67     92%     30.01        
May 19 23:13 NE 5 5 Mostly Cloudy SCT037 SCT055 BKN085 70 66     88%     30.02        
May 19 22:53 N 3 10 Mostly Cloudy SCT085 SCT100 BKN120 69 65     89%     30.02        
May 19 22:33 Calm 10 Clear   69 65     88%     30        
May 19 22:13 Calm 10 Clear   69 66     89%     29.99        
May 19 21:53 Calm 10 Clear   68 65     89%     29.98        
May 19 21:33 Calm 10 Partly Cloudy SCT110 69 65     87%     29.98        
May 19 21:13 Calm 10 Partly Cloudy SCT110 70 65     85%     29.98        
May 19 20:53 SSE 3 10 Partly Cloudy SCT110 72 63     76%   72 29.98        
May 19 20:33 Calm 10 Partly Cloudy SCT095 SCT120 71 64     80%   71 29.98        
May 19 20:13 S 3 10 Clear CLR 69 65     86%     29.98        
May 19 19:53 ENE 6 10 Partly Cloudy SCT110 70 65     85%     29.97        
May 19 19:33 NE 6 10 Mostly Cloudy SCT065 SCT085 BKN120 72 66     81%   73 29.98        
May 19 19:13 NNW 11 10 Mostly Cloudy BKN065 BKN080 80 65     61%   81 29.97        
May 19 18:53 W 13 10 Partly Cloudy SCT080 85 65     51%   87 29.92        
Notice The following observation data may not be complete
May 19 18:33   10 Clear CLR          %              
May 19 17:53 S 3 10 Partly Cloudy SCT080 86 66     52%   88 29.91        
May 19 17:33 SSE 6 10 Mostly Cloudy SCT065 BKN080 85 65     51%   87 29.91        
May 19 17:13 S 7 10 Partly Cloudy SCT065 SCT090 90 65     44%   92 29.9        
May 19 16:53 S 3 10 Partly Cloudy SCT065 90 62     40%   90 29.9        
May 19 16:33 WSW 9 10 Partly Cloudy SCT065 90 63     41%   92 29.91        
May 19 16:13 WSW 7 10 Clear CLR 91 63     40%   92 29.91        
May 19 15:53 SSW 5 10 Partly Cloudy SCT060 90 65     43%   92 29.9        
May 19 15:33 WSW 5 10 Partly Cloudy SCT060 90 65     44%   92 29.91        
May 19 15:13 WNW 8 10 Partly Cloudy SCT060 89 65     46%   91 29.92        
May 19 14:53 W 5 10 Partly Cloudy SCT060 90 65     44%   92 29.94        
May 19 14:33 W 9 10 Partly Cloudy SCT060 90 65     44%   92 29.94        
May 19 14:13 WNW 8 10 Partly Cloudy SCT060 89 65     45%   90 29.94        
May 19 13:53 NW 8 10 Partly Cloudy SCT060 89 64     44%   90 29.94        
May 19 13:33 Calm 10 Clear CLR 89 65     45%   90 29.94        
May 19 13:13 NW 10 10 Clear CLR 88 65     47%   90 29.95        
May 19 12:53 WNW 7 10 Clear CLR 88 65     46%   90 29.96        
May 19 12:33 W 10 10 Clear CLR 88 65     47%   90 29.96        
May 19 12:13 NW 8 10 Clear CLR 87 66     49%   90 29.96        
May 19 11:53 NW 3 10 Clear CLR 86 65     48%   88 29.96        
May 19 11:33 W 8 10 Clear CLR 86 65     49%   88 29.97        
May 19 11:13 WSW 7 10 Clear CLR 85 64     49%   87 29.97        
May 19 10:53 W 7 10 Clear CLR 85 64     49%   87 29.98        
May 19 10:33 WNW 9 10 Clear CLR 85 65     52%   87 29.98        
May 19 10:13 SSW 5 10 Clear CLR 83 68     61%   86 29.98        
May 19 09:53 S 5 10 Clear CLR 81 69     65%   85 29.98        
May 19 09:33 S 3 10 Clear CLR 80 68     66%   83 29.99        
May 19 09:13 SSW 3 10 Clear CLR 80 68     68%   82 29.98        
May 19 08:53 Calm 10 Clear CLR 78 68     71%   79 29.98        
May 19 08:33 Calm 10 Clear CLR 77 68     73%   78 29.98        
May 19 08:13 SSE 3 10 Clear CLR 76 68     76%   77 29.99        
May 19 07:53 Calm 10 Clear CLR 75 68     78%   76 29.99        
May 19 07:33 Calm 10 Clear CLR 73 68     84%   74 29.99        
May 19 07:13 Calm 10 Clear CLR 70 67     89%     29.99        
May 19 06:53 Calm 10 Clear CLR 67 65     92%     29.99        
May 19 06:33 Calm 7 Clear CLR 65 64     96%     29.98        
May 19 06:13 Calm 7 Clear CLR 65 64     97%     29.97        
May 19 05:53 Calm 5 Clear CLR 65 64     96%     29.96        
May 19 05:33 Calm 5 Clear   66 65     96%     29.95        
May 19 05:13 Calm 7 Clear   65 64     96%     29.95        
May 19 04:53 Calm 10 Clear   67 65     93%     29.95        
May 19 04:33 Calm 10 Clear CLR 66 65     95%     29.94        
May 19 04:13 Calm 10 Clear CLR 67 65     94%     29.94        
May 19 03:53 Calm 10 Clear CLR 69 65     89%     29.94        
May 19 03:33 Calm 10 Clear CLR 73 66     80%   73 29.93        
May 19 03:13 Calm 10 Clear CLR 73 66     80%   74 29.93        
May 19 02:53 Calm 10 Clear CLR 72 66     83%   73 29.93        
May 19 02:33 Calm 10 Clear CLR 69 65     88%     29.93        
May 19 02:13 Calm 10 Clear CLR 68 65     91%     29.93        
May 19 01:53 Calm 10 Clear CLR 70 65     86%     29.94        
May 19 01:33 Calm 10 Clear CLR 73 66     79%   74 29.94        
May 19 01:13 Calm 10 Clear CLR 73 66     79%   74 29.94        
May 19 00:53 Calm 10 Clear CLR 73 66     79%   74 29.95        
May 19 00:33 Calm 10 Clear CLR 73 66     78%   74 29.95        
May 19 00:13 S 3 10 Clear CLR 73 65     76%   74 29.94        
May 18 23:53 Calm 10 Clear CLR 73 65     75%   73 29.95        
May 18 23:33 Calm 10 Clear CLR 73 64     73%   74 29.94        
May 18 23:13 Calm 10 Clear CLR 74 64     70%   74 29.94        
May 18 22:53 S 5 10 Clear CLR 74 63     69%   75 29.95        
May 18 22:33 WSW 3 10 Clear CLR 74 63     67%   75 29.95        
May 18 22:13 S 5 10 Clear CLR 74 63     67%   75 29.96        
May 18 21:53 S 3 10 Clear CLR 75 63     65%   75 29.96        
May 18 21:33 SW 5 10 Clear CLR 77 66     69%   78 29.96        
May 18 21:13 SW 7 10 Clear CLR 80 67     66%   82 29.95        
May 18 20:53 S 11 10 Clear CLR 83 67     58%   86 29.93        
May 18 20:33 SSW 5 10 Clear CLR 84 67     56%   87 29.94        
May 18 20:13 S 5 10 Clear CLR 84 66     55%   87 29.94        
May 18 19:53 S 5 10 Clear CLR 85 65     52%   87 29.93        
May 18 19:33 S 5 10 Clear CLR 85 65     51%   87 29.92        
May 18 19:13 S 7 10 Clear CLR 86 65     49%   87 29.91        
May 18 18:53 S 3 10 Clear CLR 87 65     49%   88 29.9        
May 18 18:33 S 7 10 Clear CLR 87 64     46%   89 29.9        
May 18 18:13 S 7 10 Clear CLR 89 64     44%   90 29.9        
May 18 17:53 SSW 7 10 Clear CLR 89 64     43%   90 29.91        
May 18 17:33 SSW 6 10 Clear CLR 90 63     41%   90 29.91        
May 18 17:13 S 6 10 Clear CLR 90 63     41%   91 29.91        
May 18 16:53 SSW 5 10 Clear CLR 90 63     41%   91 29.91        
May 18 16:33 S 8 10 Clear CLR 90 63     41%   91 29.91        
May 18 16:13 S 8 10 Clear CLR 90 63     41%   91 29.92        
May 18 15:53 S 6 10 Clear CLR 90 65     43%   92 29.92        
May 18 15:33 S 8 10 Clear CLR 90 64     43%   91 29.93        
May 18 15:13 S 7 10 Clear CLR 89 65     44%   91 29.93        
May 18 14:53 S 8 10 Clear CLR 89 65     44%   91 29.94        
May 18 14:33 S 7 10 Clear CLR 89 65     46%   91 29.95        
May 18 14:13 S 9 10 Partly Cloudy SCT100 88 66     48%   90 29.96        
May 18 13:53 SSW 7 10 Partly Cloudy SCT090 SCT120 88 65     48%   90 29.96        
May 18 13:33 S 6 10 Partly Cloudy SCT090 87 66     50%   90 29.97        
May 18 13:13 SSW 5 10 Clear CLR 87 65     50%   89 29.98        
May 18 12:53 S 7 10 Clear CLR 86 65     50%   87 29.98        
May 18 12:33 S 7 10 Clear CLR 86 65     50%   87 29.99        
May 18 12:13 SSE 8 10 Clear CLR 85 65     51%   87 29.99        
May 18 11:53 SSW 6 10 Clear CLR 85 64     49%   86 30        
May 18 11:33 SSW 3 10 Clear CLR 83 63     50%   84 30        
May 18 11:13 SW 3 10 Clear CLR 83 63     51%   84 30        
May 18 10:53 WSW 5 10 Clear CLR 82 62     51%   83 30.01        
May 18 10:33 SSW 3 10 Mostly Cloudy BKN090 80 62     54%   82 30.01        
May 18 10:13 SW 3 10 Mostly Cloudy BKN090 80 62     54%   81 30.01        
May 18 09:53 SSW 3 10 Clear CLR 79 62     56%   80 30.02        
May 18 09:33 W 3 10 Clear CLR 79 62     56%   79 30.02        
May 18 09:13 SSW 5 10 Clear CLR 78 62     58%   78 30.02        
May 18 08:53 SSW 5 10 Clear CLR 76 61     60%   76 30.02        
May 18 08:33 S 3 10 Clear CLR 75 60     59%   75 30.02        
May 18 08:13 Calm 10 Clear CLR 75 60     60%   75 30.02        
May 18 07:53 SSW 3 10 Clear CLR 74 60     61%   74 30.02        
May 18 07:33 Calm 10 Clear CLR 74 60     62%   74 30.01        
May 18 07:13 Calm 10 Clear CLR 69 62     80%     30.01        
May 18 06:53 Calm 10 Clear CLR 68 62     80%     30.01        
May 18 06:33 Calm 10 Clear CLR 66 61     84%     30        
Notice The following observation data may not be complete
May 18 06:13 Calm 10 Clear CLR   60      %     29.99        
May 18 05:53 Calm 10 Clear CLR 66 60     81%     29.98        
May 18 05:33 Calm 10 Clear CLR 65 60     84%     29.97        
May 18 05:13 Calm 10 Clear CLR 66 60     82%     29.97        
May 18 04:53 Calm 10 Clear CLR 70 60     70%     29.97        
May 18 04:33 Calm 10 Clear CLR 73 59     61%   73 29.96        
May 18 04:13 Calm 10 Clear CLR 74 59     60%   74 29.96        
May 18 03:53 S 3 10 Clear CLR 76 59     55%   76 29.96        
May 18 03:33 Calm 10 Clear CLR 77 59     54%   77 29.96        
May 18 03:13 Calm 10 Clear CLR 77 59     54%   77 29.96        
May 18 02:53 Calm 10 Clear CLR 78 60     54%   78 29.96        
May 18 02:33 Calm 10 Clear CLR 78 60     55%   78 29.96        
May 18 02:13 SSE 3 10 Clear CLR 78 61     57%   78 29.96        
May 18 01:53 Calm 10 Clear CLR 78 62     58%   78 29.97        
May 18 01:33 Calm 10 Clear   78 62     58%   78 29.97        
May 18 01:13 Calm 10 Clear   78 62     57%   79 29.97        
May 18 00:53 Calm 10 Clear   79 62     56%   79 29.97        
May 18 00:33 Calm 10 Clear CLR 80 62     55%   80 29.97        
May 18 00:13 Calm 10 Clear CLR 80 62     55%   80 29.97        
May 17 23:53 Calm 10 Clear CLR 81 62     53%   82 29.97        
May 17 23:33 S 3 10 Clear CLR 81 62     52%   82 29.97        
May 17 23:13 S 5 10 Clear CLR 81 62     51%   82 29.97        
May 17 22:53 S 5 10 Clear CLR 82 61     50%   83 29.96        
May 17 22:33 S 3 10 Clear CLR 83 61     49%   83 29.96        
May 17 22:13 Calm 10 Clear CLR 83 61     47%   84 29.96        
May 17 21:53 SSW 3 10 Clear CLR 83 61     47%   84 29.96        
May 17 21:33 S 3 10 Clear CLR 84 62     47%   85 29.96        
May 17 21:13 S 3 10 Clear CLR 85 61     46%   85 29.95        
May 17 20:33 Calm 10 Clear CLR 86 61     43%   86 29.95        
May 17 20:13 SSE 3 10 Clear CLR 87 61     41%   87 29.95        
May 17 19:53 Calm 10 Clear CLR 88 60     40%   88 29.95        
May 17 19:33 S 6 10 Clear CLR 89 60     39%   88 29.94        
May 17 19:13 S 6 10 Clear CLR 89 60     39%   89 29.94        
May 17 18:53 S 6 10 Clear CLR 90 61     39%   90 29.94        
May 17 18:33 S 7 10 Clear CLR 91 61     37%   91 29.94        
May 17 18:13 SSW 6 10 Clear CLR 92 62     38%   92 29.94        
May 17 17:53 S 6 10 Clear CLR 92 61     37%   92 29.94        
May 17 17:33 S 6 10 Clear CLR 92 60     35%   92 29.94        
May 17 17:13 S 7 10 Clear CLR 92 62     36%   93 29.94        
May 17 16:53 S 8 10 Clear CLR 92 61     36%   93 29.94        
May 17 16:33 S 6 10 Clear CLR 92 62     36%   93 29.94        
May 17 16:13 SSW 7 10 Clear CLR 92 60     34%   92 29.95        
May 17 15:53 S 7 10 Clear CLR 93 60     34%   92 29.95        
May 17 15:33 SSW 3 10 Clear CLR 92 60     34%   92 29.96        
May 17 15:13 SSE 6 10 Clear CLR 92 63     38%   93 29.97        
May 17 14:53 SW 5 10 Clear CLR 92 62     38%   93 29.97        
May 17 14:33 Calm 10 Clear CLR 91 64     41%   92 29.98        
May 17 14:13 SW 3 10 Clear CLR 90 61     39%   90 29.99        
May 17 13:53 W 8 10 Clear CLR 90 62     40%   90 29.99        
May 17 13:33 W 8 10 Clear CLR 89 62     41%   90 30        
May 17 13:13 SW 7 10 Clear CLR 89 62     41%   89 30.01        
May 17 12:53 Calm 10 Clear CLR 88 63     44%   89 30.01        
May 17 12:33 ESE 5 10 Clear CLR 87 63     45%   88 30.02        
May 17 12:13 SSE 3 10 Clear CLR 85 62     46%   86 30.02        
May 17 11:53 SSE 5 10 Clear CLR 84 63     48%   85 30.03        
May 17 11:33 Calm 10 Clear CLR 83 62     50%   84 30.03        
May 17 11:13 Calm 10 Clear CLR 81 63     53%   83 30.04        
May 17 10:53 SE 3 10 Clear CLR 80 61     53%   81 30.04        
May 17 10:33 Calm 10 Clear CLR 78 60     55%   78 30.05        
May 17 10:13 Calm 10 Clear CLR 76 60     57%   76 30.04        
May 17 09:53 Calm 10 Clear CLR 75 60     58%   75 30.05        
May 17 09:33 Calm 10 Clear CLR 73 59     60%   73 30.05        
May 17 09:13 Calm 10 Clear CLR 72 58     61%   72 30.04        
May 17 08:53 SSE 3 10 Clear CLR 71 57     62%   71 30.04        
May 17 08:33 Calm 10 Clear CLR 69 57     65%     30.04        
May 17 08:13 Calm 10 Clear CLR 67 56     70%     30.04        
May 17 07:53 Calm 10 Clear CLR 64 56     75%     30.03        
May 17 07:33 Calm 10 Clear CLR 61 56     82%     30.03        
May 17 07:13 Calm 10 Clear CLR 58 55     88%     30.02        
May 17 06:53 Calm 10 Clear CLR 56 54     91%     30.02        
May 17 06:33 Calm 10 Clear CLR 54 53     94%     30.02        
May 17 06:13 Calm 10 Clear CLR 54 53     95%     30        
May 17 05:53 Calm 10 Clear CLR 54 52     94%     29.99        
May 17 05:33 Calm 10 Clear CLR 54 52     93%     29.99        
May 17 05:13 Calm 10 Clear CLR 54 53     94%     29.99        
May 17 04:53 Calm 10 Clear CLR 55 53     93%     29.99        
May 17 04:33 Calm 10 Clear CLR 55 53     92%     29.99        
May 17 04:13 Calm 10 Clear CLR 55 53     92%     29.99        
May 17 03:53 Calm 10 Clear CLR 55 53     91%     29.99        
May 17 03:33 Calm 10 Clear CLR 56 53     89%     29.98        
May 17 03:13 Calm 10 Clear CLR 56 53     89%     29.99        
May 17 02:53 Calm 10 Clear CLR 56 53     88%     29.99        
May 17 02:33 Calm 10 Clear CLR 56 53     88%     29.98        
Notice The following observation data may not be complete
May 17 02:13   10 Clear CLR          %              
May 17 01:53 Calm 10 Clear CLR 57 53     85%     29.99        
May 17 01:33 Calm 10 Clear CLR 57 52     83%     29.99        
May 17 01:13 Calm 10 Clear CLR 58 53     84%     30        
May 17 00:53 Calm 10 Clear CLR 58 52     80%     30        
May 17 00:33 Calm 10 Clear CLR 59 53     80%     30        
May 17 00:13 Calm 10 Clear CLR 59 52     78%     30.01        
May 16 23:53 Calm 10 Clear CLR 60 52     77%     30.01        
May 16 23:33 Calm 10 Clear CLR 60 52     75%     30.02        
May 16 23:13 Calm 10 Clear CLR 61 52     73%     30.02        
May 16 22:53 Calm 10 Clear CLR 62 52     70%     30.02        
May 16 22:33 Calm 10 Clear CLR 63 52     66%     30.02        
May 16 22:13 Calm 10 Clear CLR 64 53     67%     30.03        
May 16 21:13 Calm 10 Clear CLR 70 51     50%     30.02        
May 16 20:33 Calm 10 Clear CLR 75 49     39%   74 30.01        
May 16 20:13 Calm 10 Clear CLR 76 47     35%   75 30.01        
May 16 19:53 Calm 10 Clear CLR 77 46     33%   76 30.01        
May 16 19:13 S 7 10 Clear CLR 79 47     33%   78 30.01        
May 16 18:53 S 6 10 Clear CLR 79 47     33%   78 30.02        
May 16 18:33 S 6 10 Clear CLR 80 48     33%   79 30.01        
May 16 18:13 S 5 10 Clear CLR 80 47     31%   79 30.01        
May 16 17:53 S 7 10 Clear CLR 81 46     30%   80 30.01        
May 16 17:33 S 6 10 Clear CLR 80 46     30%   79 30.01        
May 16 17:13 SSW 5 10 Clear CLR 80 46     30%   80 30.02        
May 16 16:53 SSE 5 10 Clear CLR 80 46     30%   80 30.02        
May 16 16:33 SE 5 10 Clear CLR 81 46     30%   80 30.02        
May 16 16:13 S 5 10 Clear CLR 80 46     30%   79 30.02        
May 16 15:53 S 6 10 Clear CLR 80 44     28%   79 30.02        
May 16 15:33 Calm 10 Clear CLR 80 44     28%   79 30.03        
May 16 15:21 ESE 3 10 Clear CLR 79 45     30%   78 30.03        
May 16 15:01 SSE 3 10 Clear CLR 79 44     29%   78 30.04        
May 16 14:41 SSE 5 10 Clear CLR 78 44     29%   77 30.04        
May 16 14:21 SW 5 10 Clear CLR 78 43     29%   77 30.05        
May 16 14:01 SSE 6 10 Clear CLR 78 47     33%   77 30.05        
May 16 13:41 SE 5 10 Clear CLR 77 44     30%   76 30.06        
May 16 13:21 SW 6 10 Clear CLR 76 43     31%   75 30.07        
May 16 13:01 Calm 10 Clear CLR 74 41     30%   73 30.07        
May 16 12:41 WSW 6 10 Clear CLR 74 42     32%   73 30.07        
May 16 12:21 WSW 7 10 Clear CLR 74 43     33%   72 30.08        
May 16 12:01 WSW 3 10 Clear CLR 73 44     35%   72 30.08        
May 16 11:41 W 3 10 Clear CLR 73 43     34%   71 30.09        
May 16 11:21 NW 5 10 Clear CLR 72 42     34%   70 30.09        
May 16 11:01 SW 5 10 Clear CLR 71 43     36%   70 30.1        
May 16 10:41 Calm 10 Clear CLR 71 43     37%   69 30.09        
May 16 10:21 W 5 10 Clear CLR 70 44     40%     30.1        
May 16 10:01 W 5 10 Clear CLR 69 45     42%     30.1        
May 16 09:41 WSW 5 10 Clear CLR 67 44     43%     30.09        
May 16 09:21 Calm 10 Clear CLR 67 45     46%     30.1        
May 16 09:01 Calm 10 Clear CLR 65 48     53%     30.09        
May 16 08:41 Calm 10 Clear CLR 63 47     55%     30.08        
May 16 08:21 Calm 10 Clear CLR 60 48     64%     30.08        
May 16 08:01 Calm 10 Clear CLR 57 49     72%     30.08        
May 16 07:41 Calm 10 Clear CLR 54 48     82%     30.07        
May 16 07:21 Calm 10 Clear CLR 51 47     86%     30.07        
May 16 07:01 Calm 10 Clear CLR 49 46     88%     30.07        
May 16 06:41 Calm 10 Clear CLR 47 45     93%     30.07        
May 16 06:21 Calm 10 Clear CLR 46 44     93%     30.06        
May 16 06:01 Calm 10 Clear CLR 46 45     94%     30.06        
May 16 05:41 Calm 10 Clear CLR 46 44     93%     30.05        
May 16 05:21 Calm 10 Clear CLR 46 44     92%     30.04        
May 16 05:01 Calm 10 Clear CLR 47 45     93%     30.04        
Notice The following observation data may not be complete
May 16 04:41 Calm 10 Clear CLR   45      %     30.04        
May 16 04:21 Calm 10 Clear CLR 47 45     92%     30.03        
May 16 04:01 Calm 10 Clear CLR 48 45     91%     30.03        
May 16 03:41 Calm 10 Clear CLR 48 45     90%     30.03        
May 16 03:21 Calm 10 Clear CLR 49 45     89%     30.02        
May 16 03:01 Calm 10 Clear CLR 49 45     86%     30.02        
May 16 02:41 Calm 10 Clear CLR 50 45     84%     30.01        
May 16 02:21 Calm 10 Clear CLR 50 45     84%     30        
May 16 02:01 Calm 10 Clear CLR 50 45     84%     30.01        
Notice The following observation data may not be complete
May 16 01:41 Calm 10 Clear CLR   46      %     30.01        
May 16 01:21 Calm 10 Clear CLR 52 45     76%     30.01        
May 16 00:41 Calm 10 Clear CLR 54 45     72%     30.01        
Notice The following observation data may not be complete
May 16 00:21 Calm 10 Clear CLR   45      %     30.01        
Notice The following observation data may not be complete
May 16 00:01 Calm 10 Clear CLR   45      %     30        
Notice The following observation data may not be complete
May 15 23:41 Calm 10 Clear CLR   45      %     30        
May 15 23:21 Calm 10 Clear CLR 56 45     67%     29.99        
May 15 22:21 Calm 10 Clear CLR 58 45     61%     29.96        
May 15 22:01 Calm 10 Clear CLR 60 45     58%     29.96        
May 15 21:41 Calm 10 Clear CLR 61 44     54%     29.95        
May 15 21:21 Calm 10 Clear CLR 62 43     49%     29.95        
May 15 21:01 Calm 10 Clear CLR 69 40     34%     29.94        
May 15 20:41 WNW 3 10 Clear   69 40     34%     29.93        
May 15 20:21 W 3 10 Clear   70 40     33%     29.93        
May 15 20:01 WNW 5 10 Clear   71 40     32%   69 29.91        
May 15 19:41 NW 7 10 Clear CLR 72 40     31%   70 29.91        
May 15 19:21 WNW 10 10 Clear CLR 72 40     30%   71 29.9        
May 15 19:01 NW 8 10 Clear CLR 73 40     31%   71 29.89        
May 15 18:41 NW 6 10 Clear CLR 73 40     30%   72 29.88        
May 15 18:21 WNW 13 10 Clear CLR 74 40     29%   72 29.88        
May 15 18:01 NW 11 10 Clear CLR 74 40     29%   72 29.88        
May 15 17:41 WNW 13 10 Clear CLR 74 40     29%   72 29.87        
May 15 17:21 NNW 11 10 Clear CLR 74 40     29%   72 29.87        
May 15 17:01 NW 13 10 Clear CLR 74 39     28%   73 29.87        
May 15 16:41 NW 11 10 Clear CLR 74 38     27%   72 29.86        
May 15 15:44 WNW 15 10 Clear CLR 73 37     27%   71 29.87        
May 15 15:41 NW 16 10 Clear CLR 73 37     28%   71 29.87        
May 15 15:21 NW 14 10 Clear CLR 72 37     28%   71 29.88        
May 15 15:01 WNW 20 10 Clear and Windy CLR 72 38     28%   71 29.88        
May 15 14:41 WNW 10 10 Clear CLR 72 38     30%   70 29.89        
May 15 14:21 NW 15 10 Clear CLR 71 39     32%   69 29.89        
May 15 14:01 NW 10 10 Clear CLR 70 39     32%     29.89        
May 15 13:41 WNW 15 10 Clear CLR 69 39     34%     29.89        
May 15 13:21 NW 13 10 Clear CLR 69 39     34%     29.9        
May 15 13:01 NNW 14 10 Clear CLR 67 40     37%     29.91        
May 15 12:41 WNW 15 10 Clear CLR 66 40     38%     29.91        
May 15 12:21 WNW 11 10 Clear CLR 65 40     39%     29.91        
May 15 12:01 W 9 10 Clear CLR 64 40     41%     29.92        
Notice The following observation data may not be complete
May 15 11:41   10 Clear CLR          %              
May 15 11:21 WNW 11 10 Clear CLR 63 40     42%     29.92        
May 15 11:01 WNW 11 10 Clear CLR 62 40     43%     29.93        
May 15 10:41 W 13 10 Clear CLR 61 40     45%     29.92        
May 15 10:21 W 13 10 Clear CLR 61 39     45%     29.93        
May 15 10:01 WNW 8 10 Clear CLR 60 40     47%     29.93        
May 15 09:41 NW 10 10 Clear CLR 59 39     47%     29.94        
May 15 09:21 NW 8 10 Clear CLR 58 39     50%     29.94        
May 15 09:01 NW 9 10 Clear CLR 57 39     52%     29.94        
May 15 08:41 WNW 10 10 Clear CLR 56 38     52%     29.93        
May 15 08:21 WNW 8 10 Clear CLR 55 38     52%     29.94        
May 15 08:01 WNW 7 10 Clear CLR 55 38     52%     29.93        
May 15 07:41 WNW 8 10 Clear CLR 54 37     52%     29.93        
May 15 07:21 WNW 8 10 Clear CLR 53 36     52%     29.92        
May 15 07:01 W 5 10 Clear CLR 53 35     51%     29.92        
May 15 06:41 W 5 10 Clear CLR 52 35     52%     29.91        
May 15 06:21 W 6 10 Clear CLR 51 34     51%     29.9        
Notice The following observation data may not be complete
May 15 06:01   10 Clear CLR          %              
May 15 05:41 W 5 10 Clear CLR 52 33     48%     29.89        
May 15 05:21 W 3 10 Clear CLR 52 34     49%     29.88        
May 15 05:01 WNW 6 10 Clear CLR 53 33     47%     29.87        
May 15 04:41 W 7 10 Clear CLR 53 33     46%     29.87        
May 15 04:21 WNW 3 10 Clear CLR 54 33     45%     29.86        
May 15 04:01 WNW 7 10 Clear CLR 54 32     43%     29.86        
May 15 03:41 WNW 3 10 Clear CLR 54 32     42%     29.85        
May 15 03:21 WNW 7 10 Clear CLR 55 32     40%     29.85        
May 15 03:01 W 3 10 Mostly Cloudy BKN110 56 32     40%     29.85        
May 15 02:41 NW 6 10 Mostly Cloudy BKN110 56 31     38%     29.85        
May 15 02:21 NW 7 10 Mostly Cloudy SCT100 BKN120 57 30     36%     29.84        
May 15 02:01 NW 7 10 Cloudy OVC100 58 30     34%     29.84        
May 15 01:41 NNW 7 10 Cloudy OVC100 58 29     33%     29.84        
May 15 01:21 N 11 10 Cloudy BKN100 OVC120 59 29     31%     29.84        
May 15 01:01 N 7 10 Cloudy BKN090 OVC120 60 24     25%     29.84        
May 15 00:41 NW 9 10 Cloudy BKN090 OVC120 61 23     22%     29.83        
May 15 00:21 NW 11 10 Cloudy BKN090 OVC120 63 22     21%     29.82        
May 15 00:01 NW 14 10 Cloudy SCT075 BKN100 OVC120 63 22     21%     29.81        
May 14 23:41 WNW 17 10 Cloudy BKN075 OVC095 64 21     19%     29.8        
May 14 23:21 NW 15 10 Mostly Cloudy BKN075 BKN095 65 27     23%     29.79        
May 14 23:01 NW 18 10 Mostly Cloudy SCT080 SCT095 BKN120 66 34     30%     29.78        
May 14 22:41 NNW 10 10 Mostly Cloudy SCT100 BKN120 68 41     38%     29.77        
May 14 22:21 NW 13 10 Mostly Cloudy SCT090 BKN120 69 41     36%     29.75        
May 14 22:01 NNW 10 10 Mostly Cloudy BKN090 BKN110 70 41     34%   69 29.74        
May 14 21:41 NW 8 10 Mostly Cloudy BKN090 BKN120 71 42     35%   70 29.72        
May 14 21:21 NNW 8 10 Mostly Cloudy SCT100 BKN120 71 44     38%   70 29.71        
May 14 21:01 NW 6 10 Mostly Cloudy SCT095 BKN110 72 44     37%   71 29.69        
May 14 20:41 NW 3 10 Cloudy SCT090 OVC110 73 44     36%   71 29.68        
May 14 20:21 WNW 7 10 Mostly Cloudy BKN090 73 43     34%   72 29.68        
May 14 20:01 WNW 6 10 Clear CLR 73 42     33%   72 29.67        
May 14 19:41 WNW 8 10 Partly Cloudy SCT090 74 42     31%   73 29.67        
May 14 19:21 W 5 10 Partly Cloudy SCT100 75 42     30%   73 29.67        
May 14 19:01 NW 7 10 Mostly Cloudy BKN110 75 41     29%   74 29.67        
May 14 18:41 W 10 10 Partly Cloudy SCT110 76 40     28%   75 29.66        
May 14 18:21 WNW 5 10 Clear CLR 77 40     26%   76 29.66        
May 14 18:01 WNW 11 10 Clear CLR 77 39     26%   76 29.67        
May 14 17:41 NW 14 10 Clear CLR 77 39     25%   76 29.67        
May 14 17:21 WNW 15 10 Clear CLR 78 39     25%   77 29.67        
May 14 17:01 WNW 11 10 Clear CLR 78 38     24%   77 29.67        
May 14 16:41 W 14 10 Partly Cloudy SCT110 78 39     25%   77 29.67        
May 14 16:21 W 15 10 Partly Cloudy SCT110 78 39     24%   77 29.68        
May 14 16:01 W 15 10 Partly Cloudy SCT120 78 38     24%   77 29.68        
May 14 15:41   10 Partly Cloudy SCT110 79 40     25%   78 29.68        
May 14 15:01 W 6 10 Mostly Cloudy BKN120 78 48     34%   77 29.68        
May 14 14:41 W 6 10 Mostly Cloudy SCT080 BKN120 76 48     38%   75 29.68        
May 14 14:21 W 14 10 Partly Cloudy SCT080 74 47     38%   73 29.69        
May 14 14:01 W 10 10 Partly Cloudy SCT070 76 48     37%   75 29.7        
May 14 13:41 WNW 10 10 Clear CLR 74 48     40%   73 29.7        
May 14 13:21 W 10 10 Clear CLR 74 49     40%   73 29.71        
May 14 13:01 WNW 9 10 Partly Cloudy SCT060 73 48     42%   72 29.72        
May 14 12:21 WNW 10 10 Partly Cloudy SCT050 71 50     47%   70 29.73        
May 14 12:01 WNW 14 10 Clear CLR 71 49     46%   70 29.73        
May 14 11:41 WNW 14 10 Clear CLR 70 49     46%   69 29.73        
May 14 11:21 SW 5 10 Clear CLR 69 50     52%     29.74        
May 14 11:01 S 6 10 Clear CLR 68 51     55%     29.74        
May 14 10:41 WSW 3 10 Clear CLR 66 51     58%     29.75        
May 14 10:21 Calm 10 Partly Cloudy SCT085 64 51     63%     29.76        
May 14 10:01 SW 6 10 Partly Cloudy SCT080 SCT090 63 51     63%     29.76        
May 14 09:41 Calm 10 Partly Cloudy SCT080 61 52     73%     29.76        
May 14 09:21 Calm 10 Partly Cloudy SCT085 58 51     77%     29.77        
May 14 09:01 Calm 10 Clear CLR 56 51     82%     29.77        
May 14 08:41 Calm 10 Clear CLR 53 50     87%     29.78        
May 14 08:21 Calm 10 Clear CLR 52 49     91%     29.79        
May 14 08:01 Calm 10 Partly Cloudy SCT100 49 48     95%     29.8        
May 14 07:41 Calm 10 Cloudy SCT080 OVC100 48 47     95%     29.8        
May 14 07:01 Calm 10 Mostly Cloudy SCT100 BKN120 47 46     97%     29.8        
May 14 06:41 Calm 10 Mostly Cloudy BKN090 BKN120 45 44     97%     29.81        
May 14 06:21 Calm 10 Mostly Cloudy BKN100 BKN120 43 43     98%     29.81        
May 14 06:01 Calm 10 Partly Cloudy SCT120 43 42     97%     29.81        
May 14 05:41 Calm 7 Clear CLR 42 42     98%     29.8        
May 14 05:21 Calm 10 Clear CLR 43 42     97%     29.8        
May 14 05:01 Calm 10 Clear CLR 43 42     97%     29.79        
May 14 04:41 Calm 10 Clear CLR 43 43     98%     29.79        
May 14 04:21 Calm 10 Clear CLR 43 43     97%     29.8        
May 14 04:01 Calm 10 Clear CLR 43 42     97%     29.79        
May 14 03:41 Calm 10 Clear CLR 44 43     97%     29.8        
May 14 03:21 Calm 10 Clear CLR 44 43     97%     29.81        
May 14 03:01 Calm 10 Clear CLR 44 43     97%     29.81        
May 14 02:41 Calm 10 Clear CLR 44 43     97%     29.81        
May 14 02:21 Calm 10 Clear CLR 44 43     97%     29.81        
May 14 02:01 Calm 10 Clear CLR 44 44     98%     29.82        
May 14 01:41 Calm 10 Clear CLR 45 44     97%     29.82        
May 14 01:21 Calm 10 Clear CLR 45 44     97%     29.82        
May 14 01:01 Calm 10 Clear CLR 45 44     98%     29.83        
May 14 00:41 Calm 10 Clear CLR 45 45     97%     29.83        
May 14 00:21 Calm 7 Partly Cloudy SCT095 46 45     97%     29.83        
May 14 00:01 Calm 10 Partly Cloudy SCT095 46 45     97%     29.83        
May 13 23:41 Calm 10 Partly Cloudy SCT095 47 46     97%     29.83        
May 13 23:21 Calm 10 Clear CLR 46 45     97%     29.83        
May 13 23:01 Calm 10 Clear CLR 47 47     97%     29.83        
May 13 22:41 Calm 10 Clear CLR 48 47     95%     29.83        
May 13 22:21 Calm 10 Partly Cloudy SCT120 49 47     93%     29.83        
May 13 22:01 Calm 10 Clear CLR 50 47     90%     29.83        
May 13 21:41 Calm 10 Clear CLR 51 48     89%     29.82        
May 13 21:21 NW 3 10 Clear CLR 53 47     81%     29.82        
May 13 21:01 Calm 10 Partly Cloudy SCT060 SCT080 53 47     80%     29.82        
May 13 20:41 NW 5 10 Cloudy BKN060 BKN080 OVC090 54 48     78%     29.82        
May 13 20:21 NNW 5 10 Cloudy SCT070 BKN080 OVC090 54 48     78%     29.81        
May 13 20:01 N 7 10 Cloudy SCT046 SCT060 OVC065 55 48     76%     29.81        
May 13 19:41 N 7 10 Cloudy OVC048 55 48     76%     29.81        
May 13 19:21 N 7 10 Cloudy SCT047 OVC050 55 48     75%     29.8        
May 13 18:41 NW 10 10 Cloudy SCT024 BKN031 OVC036 56 48     74%     29.8        
May 13 18:21 NNW 8 10 Cloudy SCT024 OVC036 56 49     79%     29.8        
May 13 18:01 NNW 7 5 Cloudy BKN020 BKN025 OVC034 55 49     82%     29.8